Regional Weather Roundup
Issued by NWS

Home | Current Version | Previous Version | Text Only | Print | Product List | Glossary Off
Versions: 1 2 3 4 5 6 7 8 9 10 11 12 13 14 15 16 17 18 19 20 21 22 23 24 25 26 27 28 29 30 31 32 33 34 35 36 37 38 39 40 41 42 43 44 45 46 47 48 49 50

000
ASUS43 KOAX 262102
RWRNE

WEATHER ROUNDUP FOR NEBRASKA
NATIONAL WEATHER SERVICE OMAHA NE
400 PM CDT THU MAY 26 2016

NOTES: SATELLITE DATA IS BEING USED TO AUGMENT CLOUD COVER ABOVE
       12000 FEET.
       "FAIR" INDICATES FEW OR NO CLOUDS BELOW 12,000 FEET WITH NO
       SIGNIFICANT WEATHER AND/OR OBSTRUCTIONS TO VISIBILITY.

  * THESE STATIONS DO NOT REPORT WEATHER SUCH AS RAIN...SNOW OR FOG.

NEZ001>004-019>022-054>056-262200-
NEBRASKA PANHANDLE

CITY           SKY/WX    TMP DP  RH WIND       PRES   REMARKS
SCOTTSBLUFF    CLOUDY    65  40  39 W13       29.89S
ALLIANCE       CLOUDY    70  40  33 SE5       29.85F
CHADRON        CLOUDY    69  41  36 NW5       29.85F
SIDNEY         CLOUDY    68  43  40 N14       29.87F
$$

NEZ057>060-069>072-079>082-262200-
SOUTHWEST NEBRASKA

CITY           SKY/WX    TMP DP  RH WIND       PRES   REMARKS
NORTH PLATTE   SUNNY     78  46  32 E12       29.78F
IMPERIAL       MOSUNNY   76  45  33 NE16      29.77F
LEXINGTON      SUNNY     74  57  54 NE10      29.77R
MCCOOK         MOSUNNY   74  57  55 E20       29.74F
$$

NEZ005>010-023>029-035>040-094-262200-
NORTH CENTRAL NEBRASKA

CITY           SKY/WX    TMP DP  RH WIND       PRES   REMARKS
VALENTINE      SUNNY     76  45  33 VRB3      29.81F
AINSWORTH      SUNNY     73  49  43 SE6       29.83F
BROKEN BOW     SUNNY     77  51  40 E13       29.77F
ORD            SUNNY     79  49  34 NE12      29.75F
$$

NEZ041-046>049-061>064-073>077-083>087-262200-
SOUTH CENTRAL NEBRASKA

CITY           SKY/WX    TMP DP  RH WIND       PRES   REMARKS
GRAND ISLAND   CLOUDY    76  59  55 NE16G25   29.75F
HASTINGS       CLOUDY    77  59  53 E17G26    29.74F
KEARNEY *      SUNNY     79  55  44 NE15      29.76S
YORK           CLOUDY    72  57  60 NE10      29.74F
$$

NEZ011>018-030>034-042>045-262200-
NORTHEAST NEBRASKA

CITY           SKY/WX    TMP DP  RH WIND       PRES   REMARKS
NORFOLK        CLOUDY    75  53  46 E7        29.77R
ALBION         CLOUDY    80  47  31 E9        29.77F
BLAIR          CLOUDY    76  59  56 N10       29.74F THUNDER
FREMONT        CLOUDY    76  56  50 NW3       29.78F
TEKAMAH        CLOUDY    78  56  46 NE8       29.76F
$$

NEZ050>053-065>068-078-088>093-262200-
SOUTHEAST NEBRASKA

CITY           SKY/WX    TMP DP  RH WIND       PRES   REMARKS
LINCOLN        TSTM      66  62  87 E10       29.79S FOG
OMAHA EPPLEY   CLOUDY    77  63  61 N10       29.73F THUNDER
FALLS CITY     CLOUDY    71  67  87 SE12      29.75R
$$

NEZ044-045-051>053-067-262200-
OMAHA AREA

CITY           SKY/WX    TMP DP  RH WIND       PRES   REMARKS
OMAHA EPPLEY   CLOUDY    77  63  61 N10       29.73F THUNDER
BLAIR          CLOUDY    76  59  56 N10       29.74F THUNDER
FREMONT        CLOUDY    76  56  50 NW3       29.78F
OFFUTT AFB     TSTM      77  68  73 NW6       29.71F
$$




USA.gov is the U.S. government's official web portal to all federal, state and local government web resources and services.